User: anonymous   Login
Location: Koussan�
(15.2012°N, 12.5548°W)
Time: 08:18:12
(UTC+00:00)
Language:

IRS-P2 Rocket - Orbit

View from above orbital plane
View from above orbital plane
View from above satellite
View from above satellite

Ground track
Ground track

The orbit data is extracted from the following two-line orbital elements,

1 23324U 94068B   21018.83800847 -.00000038  00000-0  40174-5 0  9994
2 23324  99.1042  48.7154 0058106 132.8837 227.7236 14.17122794357756
Epoch (UTC): 18 January 2021 20:06:43
Eccentricity: 0.0058106
inclination: 99.1042°
perigee height: 793 km
apogee height: 877 km
right ascension of ascending node: 48.7154°
argument of perigee: 132.8837°
revolutions per day: 14.17122794
mean anomaly at epoch: 227.7236°
orbit number at epoch: 35775

The dashed part of the orbit path shows where the satellite is in the earth's shadow,  

DLR